Tracking 19145 objects as of 26-Apr-2018
HD Live streaming from Space Station
objects crossing your sky now

FENGYUN 1C DEB

Track FENGYUN 1C DEB now!
10-day predictions


NORAD ID: 29741
Int'l Code: 1999-025AF
Perigee: 868.4 km
Apogee: 2,547.0 km
Inclination: 99.2 °
Period: 120.4 minutes
Semi major axis: 8078 km
RCS: 0.0361 m2 (small)
Launch date: May 10, 1999
Source: People's Republic of China (PRC)
Launch site: Taiyaun Space Center, China (TSC)

Note: This is SATELLITE DEBRIS
aabbcc
Your satellite tracking list
Your tracking list is empty




NASA's NSSDC Master Catalog

Two Line Element Set (TLE):
1 29741U 99025AF  18114.75981156 +.00001454 +00000-0 +39789-2 0  9997
2 29741 099.1999 034.7750 1038871 098.5917 324.5448 11.95607775188043
Source of the keplerian elements: AFSPC